DW9665 Sarajevo BA current weather conditions

sailwx.info

Wind from 315

Air temperature -0.0° C
Dewpoint -1.6° C

Last reported at 2014-Nov-24 23:47 UTC.
Time now 2014-Nov-25 00:32 UTC

Location: N 43°50' E 018°21'.
View on Google Maps.

See reports from other nearby stations

  
Tides and Currents Weather Stations Pressure Air Temp Water Temp Dewpoint Dewpoint Depression Visibility Wind Speed Wind Dir Waves Ship Positions
date/time (UTC)wind fromknots sea level pressurealtimeterstation pressurevisibilityair tempwater tempwave heightnotes
2014-Nov-24 23:47 315 -0.0
2014-Nov-24 23:32 270 0 gusting 4 -0.0
2014-Nov-24 23:17 180 2 gusting 2 -0.0
2014-Nov-24 23:02 180 1 gusting 2 -0.0
2014-Nov-24 22:47 270 0 gusting 1 -0.0
2014-Nov-24 22:32 270 -0.0
2014-Nov-24 22:17 292 -0.0
2014-Nov-24 22:02 180 0.6
2014-Nov-24 21:47 180 0.6
2014-Nov-24 21:32 180 -0.0
2014-Nov-24 21:17 270 0 gusting 1 -0.0
2014-Nov-24 21:02 270 0.6
2014-Nov-24 20:47 135 0.6
2014-Nov-24 20:32 270 0.6
2014-Nov-24 20:17 180 1 gusting 3 1.1
2014-Nov-24 20:02 158 0 gusting 1 1.7
2014-Nov-24 19:47 270 1.7
2014-Nov-24 19:32 180 2.2
2014-Nov-24 19:17 158 2.2
2014-Nov-24 19:02 270 0 gusting 2 2.8
2014-Nov-24 18:47 270 0 gusting 3 2.8
2014-Nov-24 18:32 180 0 gusting 2 2.8
2014-Nov-24 18:17 180 3.3
2014-Nov-24 18:02 112 1 gusting 4 3.3
2014-Nov-24 17:47 135 1 gusting 3 3.3
2014-Nov-24 17:32 158 2 gusting 2 3.9
2014-Nov-24 17:17 180 0 gusting 2 3.9
2014-Nov-24 17:02 180 4.4
2014-Nov-24 16:47 180 1 gusting 2 5.0
2014-Nov-24 16:32 112 5.0
2014-Nov-24 16:17 270 5.6
2014-Nov-24 16:02 158 6.1
2014-Nov-24 15:47 158 6.1
2014-Nov-24 15:32 135 0 gusting 1 6.7
2014-Nov-24 15:17 270 0 gusting 1 7.2
2014-Nov-24 15:02 180 7.8
2014-Nov-24 14:47 270 8.3
2014-Nov-24 14:32 180 1 gusting 2 8.3
2014-Nov-24 14:17 180 8.3
2014-Nov-24 14:02 270 2 gusting 5 8.3
2014-Nov-24 13:32 292 0 gusting 1 9.4
2014-Nov-24 13:17 180 0 gusting 3 8.9
2014-Nov-24 13:02 180 8.3
2014-Nov-24 12:47 270 1 gusting 3 7.8
2014-Nov-24 12:32 292 0 gusting 2 7.8
2014-Nov-24 12:17 270 1 gusting 4 6.7
2014-Nov-24 12:02 270 2 gusting 3 6.7
2014-Nov-24 11:47 270 1 gusting 2 6.7
2014-Nov-24 11:32 292 5.6
2014-Nov-24 11:17 270 1 gusting 4 5.0
2014-Nov-24 11:02 270 2 gusting 3 4.4
2014-Nov-24 10:47 292 0 gusting 2 4.4
2014-Nov-24 10:32 180 3.9
2014-Nov-24 10:17 270 1 gusting 2 3.3
2014-Nov-24 10:02 292 1 gusting 2 2.2
2014-Nov-24 09:47 292 1 gusting 2 1.7
2014-Nov-24 09:32 292 1.7
2014-Nov-24 09:17 180 1.1
2014-Nov-24 09:02 158 1 gusting 2 0.6
2014-Nov-24 08:47 180 0 gusting 2 0.6
2014-Nov-24 08:32 135 -0.0
2014-Nov-24 08:17 135 -0.6
2014-Nov-24 08:02 270 1 gusting 2 -0.6
2014-Nov-24 07:47 068 -0.6
2014-Nov-24 07:32 180 -0.6
2014-Nov-24 07:17 180 0 gusting 1 -1.1
2014-Nov-24 07:02 112 -1.1
2014-Nov-24 06:47 180 -1.7
2014-Nov-24 06:32 180 0 gusting 2 -1.7
2014-Nov-24 06:17 180 -1.7
2014-Nov-24 06:02 180 -1.7
2014-Nov-24 05:47 180 -1.1
2014-Nov-24 05:32 045 -1.1
2014-Nov-24 05:17 112 -1.1
2014-Nov-24 05:02 180 1 gusting 0 -1.1
2014-Nov-24 04:47 180 -0.6
2014-Nov-24 04:32 180 -0.6
2014-Nov-24 04:17 180 -0.6
2014-Nov-24 04:02 180 -0.6
2014-Nov-24 03:47 158 -0.6
2014-Nov-24 03:32 090 -0.6
2014-Nov-24 03:17 180 -0.0
2014-Nov-24 03:02 180 -0.0
2014-Nov-24 02:47 180 -0.0
2014-Nov-24 02:32 180 -0.0
2014-Nov-24 02:17 180 0.6
2014-Nov-24 02:02 180 -0.0
2014-Nov-24 01:47 158 0.6
2014-Nov-24 01:32 112 0.6
2014-Nov-24 01:17 180 0.6
2014-Nov-24 01:02 180 0.6
2014-Nov-24 00:47 180 0.6
2014-Nov-24 00:32 180 0.6
2014-Nov-24 00:17 180 0.6
2014-Nov-24 00:02 180 1 gusting 1 1.1
2014-Nov-23 23:47 180 1 gusting 1 1.1
2014-Nov-23 23:32 180 1.1
2014-Nov-23 23:17 180 1.1
2014-Nov-23 23:02 180 1.1
2014-Nov-23 22:47 180 1.1
2014-Nov-23 22:32 180 1.7
2014-Nov-23 22:17 180 0 gusting 1 1.7
2014-Nov-23 22:02 180 1.7
2014-Nov-23 21:47 180 1.7
2014-Nov-23 21:32 180 1.7
2014-Nov-23 21:17 135 2.2
2014-Nov-23 21:02 180 2.2
2014-Nov-23 20:47 180 2.2
2014-Nov-23 20:32 180 2.2
2014-Nov-23 20:17 180 0 2.8
2014-Nov-23 20:02 180 2.8
2014-Nov-23 19:47 180 0 gusting 1 2.8
2014-Nov-23 19:32 180 3.3
2014-Nov-23 19:17 180 3.3
2014-Nov-23 19:02 158 3.3
2014-Nov-23 18:47 158 3.9
2014-Nov-23 18:32 158 3.9
2014-Nov-23 18:02 180 4.4
2014-Nov-23 17:47 270 4.4
2014-Nov-23 17:32 270 5.0
2014-Nov-23 17:17 270 5.0
2014-Nov-23 17:02 338 5.6
2014-Nov-23 16:47 5.6
2014-Nov-23 16:17 158 6.7
2014-Nov-23 16:02 180 7.2
2014-Nov-23 15:47 180 7.2
2014-Nov-23 15:32 270 7.8
2014-Nov-23 15:02 270 1 gusting 2 8.3
2014-Nov-23 14:47 180 0 gusting 3 9.4
2014-Nov-23 14:32 022 1 gusting 2 10.6
2014-Nov-23 14:17 180 10.6
2014-Nov-23 14:02 135 11.1
2014-Nov-23 13:47 180 11.1
2014-Nov-23 13:32 180 10.6
2014-Nov-23 13:17 180 0 gusting 2 10.6
2014-Nov-23 13:02 112 10.0
2014-Nov-23 12:47 270 9.4
2014-Nov-23 12:32 180 1 gusting 3 9.4
2014-Nov-23 12:17 022 0 gusting 2 9.4
2014-Nov-23 12:02 180 8.9
2014-Nov-23 11:47 180 7.8
2014-Nov-23 11:32 292 1 gusting 2 7.2
2014-Nov-23 11:17 5.6
2014-Nov-23 11:02 270 2 gusting 3 5.0
2014-Nov-23 10:47 270 1 gusting 3 4.4
2014-Nov-23 10:32 270 1 gusting 2 4.4
2014-Nov-23 10:17 270 1 gusting 2 3.3
2014-Nov-23 10:02 180 0 gusting 2 2.8
2014-Nov-23 09:47 180 1 gusting 4 1.7
2014-Nov-23 09:32 270 3 gusting 5 1.7
2014-Nov-23 09:17 270 1 gusting 2 1.7
2014-Nov-23 09:02 270 1.7
2014-Nov-23 08:47 292 1 gusting 3 1.7
2014-Nov-23 08:32 270 0 gusting 1 2.8
2014-Nov-23 08:17 090 2.2
2014-Nov-23 08:02 090 0.6
2014-Nov-23 07:47 045 -0.0
2014-Nov-23 07:32 270 -0.0
2014-Nov-23 07:17 270 -0.0
2014-Nov-23 07:02 180 -0.0
2014-Nov-23 06:47 338 -1.1
2014-Nov-23 06:32 292 -1.7
2014-Nov-23 06:17 292 0 gusting 1 -1.1
2014-Nov-23 06:02 180 -1.1
2014-Nov-23 05:47 180 -1.1
2014-Nov-23 05:32 068 -1.1
2014-Nov-23 05:17 180 -0.6
2014-Nov-23 05:03 180 -0.6
2014-Nov-23 04:47 180 -0.6
2014-Nov-23 04:32 112 -0.6
2014-Nov-23 04:17 158 -0.6
2014-Nov-23 04:02 135 -0.6
2014-Nov-23 03:47 180 -0.6
2014-Nov-23 03:32 180 -0.0
2014-Nov-23 03:17 180 -0.0
2014-Nov-23 03:02 180 -0.0
2014-Nov-23 02:47 180 -0.0
2014-Nov-23 02:32 180 -0.0
2014-Nov-23 02:17 112 -0.0
2014-Nov-23 02:02 158 -0.0
2014-Nov-23 01:47 090 -0.0
2014-Nov-23 01:32 135 0.6
2014-Nov-23 01:17 180 0.6
2014-Nov-23 01:02 180 0.6
2014-Nov-23 00:47 180 0.6
2014-Nov-23 00:32 180 0.6
2014-Nov-23 00:17 180 0.6
2014-Nov-23 00:02 180 0.6